Terminal Aerodrome Forecast
Issued by NWS Charleston, WV

Current Version | Previous Version | Text Only | Print | Product List | Glossary On
Versions: 1 2 3 4 5 6 7 8 9 10 11 12 13 14 15 16 17 18 19 20 21 22 23 24 25 26 27 28
444
FTUS41 KRLX 261723
TAFHTS
TAF
KHTS 261723Z 2618/2718 18010G18KT P6SM SHRA VCTS BKN050CB
     FM262000 21008KT P6SM VCTS OVC050CB
      TEMPO 2620/2624 4SM SHRA OVC025
     FM270300 20005KT P6SM BKN050
     FM271000 00000KT P6SM OVC040=

USA.gov is the U.S. government's official web portal to all federal, state and local government web resources and services.